Time,TemperatureF,DewpointF,PressureIn,WindDirection,WindDirectionDegrees,WindSpeedMPH,WindSpeedGustMPH,Humidity,HourlyPrecipIn,Conditions,Clouds,dailyrainin,SolarRadiationWatts/m^2,SoftwareType,DateUTC
2013-03-29 00:00:00,44.2,29.1,30.39,NNE,28,0.0,0.0,55,0.00,,SCT,0.00,0.00,VWS V14.01,2013-03-29 04:00:00,
2013-03-29 00:05:00,43.0,28.8,30.39,NNE,28,0.0,0.0,57,0.00,,SCT,0.00,0.00,VWS V14.01,2013-03-29 04:05:00,
2013-03-29 00:10:00,42.0,28.7,30.39,NNE,28,0.0,0.0,59,0.00,,SCT,0.00,0.00,VWS V14.01,2013-03-29 04:10:00,
2013-03-29 00:15:00,42.0,28.7,30.39,NNE,28,0.0,0.0,59,0.00,,SCT,0.00,0.00,VWS V14.01,2013-03-29 04:15:00,
2013-03-29 00:20:00,42.5,29.2,30.39,NNE,28,0.0,0.0,59,0.00,,SCT,0.00,0.00,VWS V14.01,2013-03-29 04:20:00,
2013-03-29 00:25:00,41.8,29.0,30.39,NNE,28,0.0,0.0,60,0.00,,SCT,0.00,0.00,VWS V14.01,2013-03-29 04:25:00,
2013-03-29 00:30:00,42.6,28.9,30.39,NNE,28,0.0,0.0,58,0.00,,SCT,0.00,0.00,VWS V14.01,2013-03-29 04:30:00,
2013-03-29 00:35:00,42.9,29.2,30.39,NNE,28,0.0,0.0,58,0.00,,SCT,0.00,0.00,VWS V14.01,2013-03-29 04:35:00,
2013-03-29 00:40:00,43.3,29.1,30.39,NNE,28,0.0,0.0,57,0.00,,SCT,0.00,0.00,VWS V14.01,2013-03-29 04:40:00,
2013-03-29 00:45:00,43.0,29.7,30.39,NNE,28,0.0,1.0,59,0.00,,SCT,0.00,0.00,VWS V14.01,2013-03-29 04:45:00,
2013-03-29 00:50:00,43.4,29.2,30.39,NNE,28,2.0,3.0,57,0.00,,SCT,0.00,0.00,VWS V14.01,2013-03-29 04:50:00,
2013-03-29 00:55:00,43.1,30.2,30.39,NNE,28,0.0,0.0,60,0.00,,SCT,0.00,0.00,VWS V14.01,2013-03-29 04:55:00,
2013-03-29 01:00:00,42.5,30.0,30.39,NNE,28,0.0,0.0,61,0.00,,SCT,0.00,0.00,VWS V14.01,2013-03-29 05:00:00,
2013-03-29 01:05:00,42.0,30.3,30.39,NE,42,1.0,2.0,63,0.00,,SCT,0.00,0.00,VWS V14.01,2013-03-29 05:05:00,
2013-03-29 01:10:00,41.5,29.9,30.39,NE,56,0.0,3.0,63,0.00,,SCT,0.00,0.00,VWS V14.01,2013-03-29 05:10:00,
2013-03-29 01:15:00,41.9,29.9,30.39,NE,56,2.0,3.0,62,0.00,,SCT,0.00,0.00,VWS V14.01,2013-03-29 05:15:00,
2013-03-29 01:20:00,41.7,29.7,30.39,NE,56,1.0,3.0,62,0.00,,SCT,0.00,0.00,VWS V14.01,2013-03-29 05:20:00,
2013-03-29 01:25:00,41.5,29.9,30.39,NE,56,0.0,3.0,63,0.00,,SCT,0.00,0.00,VWS V14.01,2013-03-29 05:25:00,
2013-03-29 01:30:00,42.0,29.9,30.39,NE,56,0.0,3.0,62,0.00,,SCT,0.00,0.00,VWS V14.01,2013-03-29 05:30:00,
2013-03-29 01:35:00,42.7,29.8,30.40,NE,56,0.0,3.0,60,0.00,,SCT,0.00,0.00,VWS V14.01,2013-03-29 05:35:00,
2013-03-29 01:40:00,42.8,29.9,30.40,NE,56,2.0,3.0,60,0.00,,SCT,0.00,0.00,VWS V14.01,2013-03-29 05:40:00,
2013-03-29 01:45:00,43.1,30.2,30.40,NNE,24,1.0,4.0,60,0.00,,SCT,0.00,0.00,VWS V14.01,2013-03-29 05:45:00,
2013-03-29 01:50:00,42.7,30.6,30.40,NE,35,3.0,4.0,62,0.00,,SCT,0.00,0.00,VWS V14.01,2013-03-29 05:50:00,
2013-03-29 01:55:00,42.8,29.9,30.40,NNE,17,4.0,5.0,60,0.00,,SCT,0.00,0.00,VWS V14.01,2013-03-29 05:55:00,
2013-03-29 02:00:00,43.4,30.0,30.40,NNE,15,1.0,5.0,59,0.00,,SCT,0.00,0.00,VWS V14.01,2013-03-29 06:00:00,
2013-03-29 02:05:00,43.0,30.1,30.40,NNE,16,0.0,5.0,60,0.00,,SCT,0.00,0.00,VWS V14.01,2013-03-29 06:05:00,
2013-03-29 02:10:00,42.6,30.5,30.39,NNE,16,0.0,5.0,62,0.00,,SCT,0.00,0.00,VWS V14.01,2013-03-29 06:10:00,
2013-03-29 02:15:00,42.5,30.0,30.39,NNE,15,2.0,5.0,61,0.00,,SCT,0.00,0.00,VWS V14.01,2013-03-29 06:15:00,
2013-03-29 02:20:00,42.7,30.2,30.39,North,5,1.0,5.0,61,0.00,,SCT,0.00,0.00,VWS V14.01,2013-03-29 06:20:00,
2013-03-29 02:25:00,43.1,30.2,30.39,North,5,0.0,5.0,60,0.00,,SCT,0.00,0.00,VWS V14.01,2013-03-29 06:25:00,
2013-03-29 02:30:00,42.4,31.1,30.39,North,5,0.0,5.0,64,0.00,,SCT,0.00,0.00,VWS V14.01,2013-03-29 06:30:00,
2013-03-29 02:35:00,41.9,30.6,30.40,North,5,0.0,5.0,64,0.00,,SCT,0.00,0.00,VWS V14.01,2013-03-29 06:35:00,
2013-03-29 02:40:00,40.8,30.7,30.40,North,5,0.0,5.0,67,0.00,,SCT,0.00,0.00,VWS V14.01,2013-03-29 06:40:00,
2013-03-29 02:45:00,39.9,30.6,30.40,North,5,0.0,5.0,69,0.00,,SCT,0.00,0.00,VWS V14.01,2013-03-29 06:45:00,
2013-03-29 02:50:00,39.7,31.1,30.39,North,5,0.0,5.0,71,0.00,,SCT,0.00,0.00,VWS V14.01,2013-03-29 06:50:00,
2013-03-29 02:55:00,39.8,31.2,30.39,North,5,0.0,1.0,71,0.00,,SCT,0.00,0.00,VWS V14.01,2013-03-29 06:55:00,
2013-03-29 03:00:00,40.0,31.4,30.39,North,5,0.0,1.0,71,0.00,,SCT,0.00,0.00,VWS V14.01,2013-03-29 07:00:00,
2013-03-29 03:05:00,40.4,31.0,30.39,North,5,0.0,1.0,69,0.00,,SCT,0.00,0.00,VWS V14.01,2013-03-29 07:05:00,
2013-03-29 03:10:00,40.2,31.2,30.39,North,5,0.0,1.0,70,0.00,,SCT,0.00,0.00,VWS V14.01,2013-03-29 07:10:00,
2013-03-29 03:15:00,39.8,30.8,30.39,North,5,0.0,1.0,70,0.00,,SCT,0.00,0.00,VWS V14.01,2013-03-29 07:15:00,
2013-03-29 03:20:00,40.2,30.9,30.39,North,5,0.0,1.0,69,0.00,,SCT,0.00,0.00,VWS V14.01,2013-03-29 07:20:00,
2013-03-29 03:25:00,40.6,31.2,30.39,North,5,1.0,1.0,69,0.00,,SCT,0.00,0.00,VWS V14.01,2013-03-29 07:25:00,
2013-03-29 03:30:00,40.6,31.2,30.39,North,5,1.0,1.0,69,0.00,,SCT,0.00,0.00,VWS V14.01,2013-03-29 07:30:00,
2013-03-29 03:35:00,40.6,31.2,30.39,North,5,1.0,1.0,69,0.00,,SCT,0.00,0.00,VWS V14.01,2013-03-29 07:35:00,
2013-03-29 03:40:00,40.6,31.2,30.39,North,5,1.0,1.0,69,0.00,,SCT,0.00,0.00,VWS V14.01,2013-03-29 07:40:00,
2013-03-29 03:45:00,40.6,31.2,30.39,North,5,1.0,1.0,69,0.00,,SCT,0.00,0.00,VWS V14.01,2013-03-29 07:45:00,
2013-03-29 03:50:00,41.3,30.8,30.39,North,5,3.0,3.0,66,0.00,,SCT,0.00,0.00,VWS V14.01,2013-03-29 07:50:00,
2013-03-29 03:55:00,41.8,30.9,30.38,NNE,16,3.0,4.0,65,0.00,,SCT,0.00,0.00,VWS V14.01,2013-03-29 07:55:00,
2013-03-29 04:00:00,42.0,31.5,30.38,NNE,15,2.0,4.0,66,0.00,,SCT,0.00,0.00,VWS V14.01,2013-03-29 08:00:00,
2013-03-29 04:05:00,42.0,31.1,30.38,North,5,2.0,4.0,65,0.00,,SCT,0.00,0.00,VWS V14.01,2013-03-29 08:05:00,
2013-03-29 04:10:00,42.3,31.0,30.38,North,5,0.0,4.0,64,0.00,,SCT,0.00,0.00,VWS V14.01,2013-03-29 08:10:00,
2013-03-29 04:15:00,41.9,31.4,30.38,North,9,1.0,4.0,66,0.00,,SCT,0.00,0.00,VWS V14.01,2013-03-29 08:15:00,
2013-03-29 04:20:00,41.9,31.4,30.38,North,9,0.0,4.0,66,0.00,,SCT,0.00,0.00,VWS V14.01,2013-03-29 08:20:00,
2013-03-29 04:25:00,41.2,30.7,30.38,North,9,0.0,4.0,66,0.00,,SCT,0.00,0.00,VWS V14.01,2013-03-29 08:25:00,
2013-03-29 04:30:00,41.2,30.7,30.38,North,9,0.0,4.0,66,0.00,,SCT,0.00,0.00,VWS V14.01,2013-03-29 08:30:00,
2013-03-29 04:35:00,40.4,30.7,30.38,North,9,0.0,4.0,68,0.00,,SCT,0.00,0.00,VWS V14.01,2013-03-29 08:35:00,
2013-03-29 04:40:00,39.1,30.2,30.38,North,9,0.0,4.0,70,0.00,,SCT,0.00,0.00,VWS V14.01,2013-03-29 08:40:00,
2013-03-29 04:45:00,38.2,30.3,30.38,North,9,0.0,4.0,73,0.00,,SCT,0.00,0.00,VWS V14.01,2013-03-29 08:45:00,
2013-03-29 04:50:00,38.2,30.7,30.38,North,9,0.0,4.0,74,0.00,,SCT,0.00,0.00,VWS V14.01,2013-03-29 08:50:00,
2013-03-29 04:55:00,38.4,30.5,30.38,North,9,0.0,0.0,73,0.00,,SCT,0.00,0.00,VWS V14.01,2013-03-29 08:55:00,
2013-03-29 05:00:00,38.6,30.7,30.38,North,9,0.0,0.0,73,0.00,,SCT,0.00,0.00,VWS V14.01,2013-03-29 09:00:00,
2013-03-29 05:05:00,38.8,30.9,30.38,North,9,0.0,0.0,73,0.00,,SCT,0.00,0.00,VWS V14.01,2013-03-29 09:05:00,
2013-03-29 05:10:00,38.7,30.8,30.38,North,9,0.0,0.0,73,0.00,,SCT,0.00,0.00,VWS V14.01,2013-03-29 09:10:00,
2013-03-29 05:15:00,38.8,30.9,30.38,North,9,0.0,0.0,73,0.00,,SCT,0.00,0.00,VWS V14.01,2013-03-29 09:15:00,
2013-03-29 05:20:00,38.7,30.8,30.38,North,9,0.0,0.0,73,0.00,,SCT,0.00,0.00,VWS V14.01,2013-03-29 09:20:00,
2013-03-29 05:25:00,39.4,30.8,30.38,NNE,13,2.0,2.0,71,0.00,,SCT,0.00,0.00,VWS V14.01,2013-03-29 09:25:00,
2013-03-29 05:30:00,39.1,30.5,30.38,NNE,14,0.0,2.0,71,0.00,,SCT,0.00,0.00,VWS V14.01,2013-03-29 09:30:00,
2013-03-29 05:35:00,38.7,30.5,30.38,NNE,14,0.0,2.0,72,0.00,,SCT,0.00,0.00,VWS V14.01,2013-03-29 09:35:00,
2013-03-29 05:40:00,38.4,30.5,30.38,NNE,14,0.0,2.0,73,0.00,,SCT,0.00,0.00,VWS V14.01,2013-03-29 09:40:00,
2013-03-29 05:45:00,39.0,30.8,30.38,NNE,14,0.0,2.0,72,0.00,,SCT,0.00,0.00,VWS V14.01,2013-03-29 09:45:00,
2013-03-29 05:50:00,38.7,30.5,30.38,NNE,14,0.0,2.0,72,0.00,,SCT,0.00,0.00,VWS V14.01,2013-03-29 09:50:00,
2013-03-29 05:55:00,39.2,31.0,30.38,NNE,14,2.0,2.0,72,0.00,,SCT,0.00,0.00,VWS V14.01,2013-03-29 09:55:00,
2013-03-29 06:00:00,39.0,30.8,30.38,NNE,14,0.0,2.0,72,0.00,,SCT,0.00,0.00,VWS V14.01,2013-03-29 10:00:00,
2013-03-29 06:05:00,38.7,30.5,30.38,NNE,14,0.0,2.0,72,0.00,,SCT,0.00,0.00,VWS V14.01,2013-03-29 10:05:00,
2013-03-29 06:10:00,39.0,30.8,30.38,NNE,14,0.0,2.0,72,0.00,,SCT,0.00,0.00,VWS V14.01,2013-03-29 10:10:00,
2013-03-29 06:15:00,39.1,30.9,30.39,NNE,14,0.0,2.0,72,0.00,,SCT,0.00,0.00,VWS V14.01,2013-03-29 10:15:00,
2013-03-29 06:20:00,39.4,31.1,30.39,NNE,14,0.0,2.0,72,0.00,,SCT,0.00,0.00,VWS V14.01,2013-03-29 10:20:00,
2013-03-29 06:25:00,39.7,31.1,30.39,NNE,14,0.0,2.0,71,0.00,,SCT,0.00,0.00,VWS V14.01,2013-03-29 10:25:00,
2013-03-29 06:30:00,39.5,30.9,30.39,NNE,14,0.0,2.0,71,0.00,,SCT,0.00,0.00,VWS V14.01,2013-03-29 10:30:00,
2013-03-29 06:35:00,38.6,30.7,30.39,NNE,14,0.0,2.0,73,0.00,,SCT,0.00,0.00,VWS V14.01,2013-03-29 10:35:00,
2013-03-29 06:40:00,38.6,30.7,30.39,NNE,14,0.0,2.0,73,0.00,,SCT,0.00,0.00,VWS V14.01,2013-03-29 10:40:00,
2013-03-29 06:45:00,39.3,30.7,30.39,NNE,14,0.0,2.0,71,0.00,,SCT,0.00,0.00,VWS V14.01,2013-03-29 10:45:00,
2013-03-29 06:50:00,39.6,31.0,30.40,NNE,14,0.0,2.0,71,0.00,,SCT,0.00,0.00,VWS V14.01,2013-03-29 10:50:00,
2013-03-29 06:55:00,39.7,31.1,30.40,NNE,14,1.0,1.0,71,0.00,,SCT,0.00,0.00,VWS V14.01,2013-03-29 10:55:00,
2013-03-29 07:00:00,39.8,30.8,30.40,NNE,14,0.0,2.0,70,0.00,,SCT,0.00,0.00,VWS V14.01,2013-03-29 11:00:00,
2013-03-29 07:05:00,39.6,31.0,30.40,NNE,14,0.0,2.0,71,0.00,,SCT,0.00,0.00,VWS V14.01,2013-03-29 11:05:00,
2013-03-29 07:10:00,39.9,30.9,30.40,NNE,14,0.0,2.0,70,0.00,,SCT,0.00,5.00,VWS V14.01,2013-03-29 11:10:00,
2013-03-29 07:15:00,39.9,30.9,30.40,NNE,14,1.0,2.0,70,0.00,,SCT,0.00,9.00,VWS V14.01,2013-03-29 11:15:00,
2013-03-29 07:20:00,40.1,30.8,30.40,NNE,14,0.0,4.0,69,0.00,,SCT,0.00,12.00,VWS V14.01,2013-03-29 11:20:00,
2013-03-29 07:25:00,39.4,30.8,30.41,NNE,14,0.0,4.0,71,0.00,,SCT,0.00,16.00,VWS V14.01,2013-03-29 11:25:00,
2013-03-29 07:30:00,38.8,30.6,30.41,NNE,14,0.0,4.0,72,0.00,,SCT,0.00,21.00,VWS V14.01,2013-03-29 11:30:00,
2013-03-29 07:35:00,38.3,30.8,30.41,NNE,14,0.0,4.0,74,0.00,,SCT,0.00,25.00,VWS V14.01,2013-03-29 11:35:00,
2013-03-29 07:40:00,38.5,31.0,30.41,NNE,24,0.0,4.0,74,0.00,,SCT,0.00,37.00,VWS V14.01,2013-03-29 11:40:00,
2013-03-29 07:45:00,38.2,31.0,30.41,NNE,24,0.0,4.0,75,0.00,,SCT,0.00,42.00,VWS V14.01,2013-03-29 11:45:00,
2013-03-29 07:50:00,38.9,31.0,30.41,NNE,24,0.0,4.0,73,0.00,,SCT,0.00,44.00,VWS V14.01,2013-03-29 11:50:00,
2013-03-29 07:55:00,38.5,31.6,30.42,NNE,24,0.0,0.0,76,0.00,,SCT,0.00,54.00,VWS V14.01,2013-03-29 11:55:00,
2013-03-29 08:00:00,38.8,31.6,30.42,NNE,24,0.0,0.0,75,0.00,,SCT,0.00,63.00,VWS V14.01,2013-03-29 12:00:00,
2013-03-29 08:05:00,38.6,31.7,30.42,NNE,24,0.0,1.0,76,0.00,,SCT,0.00,69.00,VWS V14.01,2013-03-29 12:05:00,
2013-03-29 08:10:00,38.6,32.3,30.42,NNE,24,0.0,1.0,78,0.00,,SCT,0.00,67.00,VWS V14.01,2013-03-29 12:10:00,
2013-03-29 08:15:00,38.4,32.5,30.42,NNE,24,0.0,1.0,79,0.00,,SCT,0.00,91.00,VWS V14.01,2013-03-29 12:15:00,
2013-03-29 08:20:00,38.5,32.9,30.42,NNE,24,0.0,1.0,80,0.00,,SCT,0.00,97.00,VWS V14.01,2013-03-29 12:20:00,
2013-03-29 08:25:00,38.6,33.0,30.42,NNE,24,0.0,1.0,80,0.00,,SCT,0.00,118.00,VWS V14.01,2013-03-29 12:25:00,
2013-03-29 08:30:00,39.3,33.0,30.42,NNE,24,0.0,1.0,78,0.00,,SCT,0.00,142.00,VWS V14.01,2013-03-29 12:30:00,
2013-03-29 08:35:00,39.4,33.4,30.42,NNE,24,0.0,1.0,79,0.00,,SCT,0.00,141.00,VWS V14.01,2013-03-29 12:35:00,
2013-03-29 08:40:00,39.3,33.3,30.42,NNE,24,0.0,1.0,79,0.00,,SCT,0.00,120.00,VWS V14.01,2013-03-29 12:40:00,
2013-03-29 08:45:00,39.6,33.3,30.42,NNE,24,0.0,1.0,78,0.00,,SCT,0.00,125.00,VWS V14.01,2013-03-29 12:45:00,
2013-03-29 08:50:00,40.6,34.0,30.42,NNE,24,0.0,1.0,77,0.00,,SCT,0.00,113.00,VWS V14.01,2013-03-29 12:50:00,
2013-03-29 08:55:00,41.2,34.5,30.42,NNE,24,0.0,0.0,77,0.00,,SCT,0.00,102.00,VWS V14.01,2013-03-29 12:55:00,
2013-03-29 09:00:00,41.1,34.5,30.42,NNE,24,0.0,0.0,77,0.00,,SCT,0.00,111.00,VWS V14.01,2013-03-29 13:00:00,
2013-03-29 09:05:00,41.6,34.9,30.42,NNE,24,0.0,0.0,77,0.00,,SCT,0.00,132.00,VWS V14.01,2013-03-29 13:05:00,
2013-03-29 09:10:00,42.0,34.3,30.42,NNE,24,0.0,0.0,74,0.00,,SCT,0.00,137.00,VWS V14.01,2013-03-29 13:10:00,
2013-03-29 09:15:00,42.7,34.7,30.42,NNE,24,0.0,0.0,73,0.00,,SCT,0.00,149.00,VWS V14.01,2013-03-29 13:15:00,
2013-03-29 09:19:00,43.6,35.2,30.42,NNE,24,0.0,0.0,72,0.00,,SCT,0.00,160.00,VWS V14.01,2013-03-29 13:19:00,
2013-03-29 09:24:00,43.8,35.7,30.43,NNE,24,0.0,0.0,73,0.00,,SCT,0.00,167.00,VWS V14.01,2013-03-29 13:24:00,
2013-03-29 09:29:00,44.2,36.1,30.42,NNE,24,0.0,0.0,73,0.00,,SCT,0.00,172.00,VWS V14.01,2013-03-29 13:29:00,
2013-03-29 09:34:00,44.9,36.4,30.42,NNE,24,0.0,0.0,72,0.00,,SCT,0.00,190.00,VWS V14.01,2013-03-29 13:34:00,
2013-03-29 09:39:00,45.5,36.7,30.42,NNE,24,0.0,0.0,71,0.00,,SCT,0.00,195.00,VWS V14.01,2013-03-29 13:39:00,
2013-03-29 09:44:00,46.3,35.6,30.42,NNE,24,0.0,1.0,66,0.00,,SCT,0.00,192.00,VWS V14.01,2013-03-29 13:44:00,
2013-03-29 09:49:00,46.9,36.2,30.42,NNE,24,0.0,1.0,66,0.00,,SCT,0.00,199.00,VWS V14.01,2013-03-29 13:49:00,
2013-03-29 09:54:00,48.1,36.9,30.41,NNE,24,0.0,0.0,65,0.00,,SCT,0.00,480.00,VWS V14.01,2013-03-29 13:54:00,
2013-03-29 09:59:00,49.0,35.3,30.41,NNE,24,0.0,0.0,59,0.00,,SCT,0.00,503.00,VWS V14.01,2013-03-29 13:59:00,
2013-03-29 10:00:00,47.6,35.6,30.42,NNE,24,0.0,1.0,63,0.00,,SCT,0.00,527.00,VWS V14.01,2013-03-29 14:00:00,
2013-03-29 10:04:00,49.6,35.5,30.42,NNE,24,0.0,2.0,58,0.00,,SCT,0.00,536.00,VWS V14.01,2013-03-29 14:04:00,
2013-03-29 10:09:00,49.9,32.0,30.41,NNE,26,5.0,5.0,50,0.00,,SCT,0.00,545.00,VWS V14.01,2013-03-29 14:09:00,
2013-03-29 10:14:00,50.2,32.3,30.41,NNE,28,1.0,5.0,50,0.00,,SCT,0.00,559.00,VWS V14.01,2013-03-29 14:14:00,
2013-03-29 10:19:00,50.9,32.9,30.41,North,360,5.0,6.0,50,0.00,,SCT,0.00,568.00,VWS V14.01,2013-03-29 14:19:00,
2013-03-29 10:24:00,50.3,32.4,30.41,NNW,344,2.0,6.0,50,0.00,,SCT,0.00,580.00,VWS V14.01,2013-03-29 14:24:00,
2013-03-29 10:29:00,50.0,32.6,30.41,WNW,296,3.0,7.0,51,0.00,,SCT,0.00,591.00,VWS V14.01,2013-03-29 14:29:00,
2013-03-29 10:34:00,51.0,32.5,30.41,North,9,7.0,7.0,49,0.00,,SCT,0.00,610.00,VWS V14.01,2013-03-29 14:34:00,
2013-03-29 10:39:00,50.9,32.4,30.41,NNW,331,3.0,7.0,49,0.00,,SCT,0.00,626.00,VWS V14.01,2013-03-29 14:39:00,
2013-03-29 10:44:00,51.2,32.2,30.41,ESE,102,0.0,7.0,48,0.00,,SCT,0.00,643.00,VWS V14.01,2013-03-29 14:44:00,
2013-03-29 10:49:00,51.2,32.2,30.41,ESE,113,4.0,7.0,48,0.00,,SCT,0.00,631.00,VWS V14.01,2013-03-29 14:49:00,
2013-03-29 10:54:00,52.0,32.4,30.41,ESE,122,11.0,13.0,47,0.00,,SCT,0.00,591.00,VWS V14.01,2013-03-29 14:54:00,
2013-03-29 10:59:00,52.1,32.0,30.40,ESE,113,7.0,13.0,46,0.00,,SCT,0.00,670.00,VWS V14.01,2013-03-29 14:59:00,
2013-03-29 11:00:00,51.7,32.7,30.41,SE,134,13.0,13.0,48,0.00,,SCT,0.00,587.00,VWS V14.01,2013-03-29 15:00:00,
2013-03-29 11:04:00,52.2,32.1,30.40,ESE,113,8.0,13.0,46,0.00,,SCT,0.00,547.00,VWS V14.01,2013-03-29 15:04:00,
2013-03-29 11:09:00,52.2,31.5,30.40,ESE,103,2.0,15.0,45,0.00,,SCT,0.00,715.00,VWS V14.01,2013-03-29 15:09:00,
2013-03-29 11:14:00,52.4,31.7,30.40,ESE,121,9.0,15.0,45,0.00,,SCT,0.00,737.00,VWS V14.01,2013-03-29 15:14:00,
2013-03-29 11:19:00,52.7,32.5,30.40,ESE,123,0.0,15.0,46,0.00,,SCT,0.00,763.00,VWS V14.01,2013-03-29 15:19:00,
2013-03-29 11:24:00,53.8,33.5,30.40,South,178,4.0,15.0,46,0.00,,SCT,0.00,770.00,VWS V14.01,2013-03-29 15:24:00,
2013-03-29 11:29:00,53.1,31.8,30.40,South,184,0.0,15.0,44,0.00,,SCT,0.00,765.00,VWS V14.01,2013-03-29 15:29:00,
2013-03-29 11:34:00,53.5,31.6,30.39,NE,53,3.0,15.0,43,0.00,,SCT,0.00,791.00,VWS V14.01,2013-03-29 15:34:00,
2013-03-29 11:39:00,53.6,31.7,30.39,NNE,33,1.0,15.0,43,0.00,,SCT,0.00,817.00,VWS V14.01,2013-03-29 15:39:00,
2013-03-29 11:44:00,53.4,32.6,30.39,SSE,153,0.0,15.0,45,0.00,,SCT,0.00,167.00,VWS V14.01,2013-03-29 15:44:00,
2013-03-29 11:49:00,53.6,32.2,30.39,NNE,22,4.0,15.0,44,0.00,,SCT,0.00,202.00,VWS V14.01,2013-03-29 15:49:00,
2013-03-29 11:54:00,53.5,32.1,30.39,NE,43,3.0,6.0,44,0.00,,SCT,0.00,698.00,VWS V14.01,2013-03-29 15:54:00,
2013-03-29 11:59:00,54.6,32.0,30.38,NNE,19,0.0,6.0,42,0.00,,SCT,0.00,239.00,VWS V14.01,2013-03-29 15:59:00,
2013-03-29 12:00:00,53.3,32.0,30.39,North,351,3.0,15.0,44,0.00,,SCT,0.00,726.00,VWS V14.01,2013-03-29 16:00:00,
2013-03-29 12:04:00,55.0,33.5,30.38,East,101,6.0,6.0,44,0.00,,SCT,0.00,823.00,VWS V14.01,2013-03-29 16:04:00,
2013-03-29 12:09:00,54.6,32.0,30.38,East,88,0.0,11.0,42,0.00,,SCT,0.00,308.00,VWS V14.01,2013-03-29 16:09:00,
2013-03-29 12:14:00,54.4,31.2,30.38,NE,34,10.0,13.0,41,0.00,,SCT,0.00,281.00,VWS V14.01,2013-03-29 16:14:00,
2013-03-29 12:19:00,53.6,31.1,30.38,ESE,103,8.0,15.0,42,0.00,,SCT,0.00,271.00,VWS V14.01,2013-03-29 16:19:00,
2013-03-29 12:24:00,53.9,30.8,30.38,ENE,73,7.0,15.0,41,0.00,,SCT,0.00,239.00,VWS V14.01,2013-03-29 16:24:00,
2013-03-29 12:29:00,53.8,30.7,30.38,ENE,74,5.0,15.0,41,0.00,,SCT,0.00,211.00,VWS V14.01,2013-03-29 16:29:00,
2013-03-29 12:34:00,53.3,30.8,30.38,East,80,12.0,15.0,42,0.00,,SCT,0.00,246.00,VWS V14.01,2013-03-29 16:34:00,
2013-03-29 12:39:00,53.1,30.6,30.37,SSE,154,1.0,15.0,42,0.00,,SCT,0.00,348.00,VWS V14.01,2013-03-29 16:39:00,
2013-03-29 12:44:00,53.6,31.1,30.37,SW,220,1.0,15.0,42,0.00,,SCT,0.00,320.00,VWS V14.01,2013-03-29 16:44:00,
2013-03-29 12:49:00,54.0,32.0,30.37,East,87,4.0,15.0,43,0.00,,SCT,0.00,290.00,VWS V14.01,2013-03-29 16:49:00,
2013-03-29 12:54:00,54.4,31.2,30.37,ENE,76,4.0,6.0,41,0.00,,SCT,0.00,214.00,VWS V14.01,2013-03-29 16:54:00,
2013-03-29 12:59:00,54.0,30.9,30.37,SE,127,9.0,9.0,41,0.00,,SCT,0.00,246.00,VWS V14.01,2013-03-29 16:59:00,
2013-03-29 13:00:00,54.4,31.8,30.37,ESE,103,4.0,15.0,42,0.00,,SCT,0.00,214.00,VWS V14.01,2013-03-29 17:00:00,
2013-03-29 13:04:00,53.9,29.5,30.36,SE,140,5.0,11.0,39,0.00,,SCT,0.00,274.00,VWS V14.01,2013-03-29 17:04:00,
2013-03-29 13:09:00,54.2,29.2,30.36,SE,131,6.0,11.0,38,0.00,,SCT,0.00,367.00,VWS V14.01,2013-03-29 17:09:00,
2013-03-29 13:14:00,55.0,30.5,30.36,SSE,159,2.0,11.0,39,0.00,,SCT,0.00,1065.00,VWS V14.01,2013-03-29 17:14:00,
2013-03-29 13:19:00,55.2,30.1,30.36,SW,215,4.0,11.0,38,0.00,,SCT,0.00,947.00,VWS V14.01,2013-03-29 17:19:00,
2013-03-29 13:24:00,56.1,30.2,30.36,North,9,5.0,11.0,37,0.00,,SCT,0.00,388.00,VWS V14.01,2013-03-29 17:24:00,
2013-03-29 13:29:00,55.0,28.6,30.35,NE,49,2.0,11.0,36,0.00,,SCT,0.00,257.00,VWS V14.01,2013-03-29 17:29:00,
2013-03-29 13:34:00,55.1,28.6,30.35,SE,130,7.0,11.0,36,0.00,,SCT,0.00,206.00,VWS V14.01,2013-03-29 17:34:00,
2013-03-29 13:39:00,54.6,28.9,30.35,SSE,159,5.0,11.0,37,0.00,,SCT,0.00,200.00,VWS V14.01,2013-03-29 17:39:00,
2013-03-29 13:44:00,54.7,29.0,30.34,SSW,196,0.0,11.0,37,0.00,,SCT,0.00,1069.00,VWS V14.01,2013-03-29 17:44:00,
2013-03-29 13:49:00,56.2,29.6,30.34,SSW,200,0.0,11.0,36,0.00,,SCT,0.00,1069.00,VWS V14.01,2013-03-29 17:49:00,
2013-03-29 13:54:00,55.9,28.7,30.34,ESE,116,9.0,12.0,35,0.00,,SCT,0.00,255.00,VWS V14.01,2013-03-29 17:54:00,
2013-03-29 13:59:00,55.6,29.1,30.34,East,94,7.0,13.0,36,0.00,,SCT,0.00,271.00,VWS V14.01,2013-03-29 17:59:00,
2013-03-29 14:00:00,56.1,28.8,30.34,ESE,114,7.0,14.0,35,0.00,,SCT,0.00,264.00,VWS V14.01,2013-03-29 18:00:00,
2013-03-29 14:04:00,55.6,29.1,30.33,East,101,4.0,13.0,36,0.00,,SCT,0.00,311.00,VWS V14.01,2013-03-29 18:04:00,
2013-03-29 14:09:00,56.7,29.4,30.33,ESE,107,2.0,13.0,35,0.00,,SCT,0.00,329.00,VWS V14.01,2013-03-29 18:09:00,
2013-03-29 14:14:00,56.4,28.4,30.33,ENE,65,8.0,13.0,34,0.00,,SCT,0.00,287.00,VWS V14.01,2013-03-29 18:14:00,
2013-03-29 14:19:00,56.2,28.2,30.32,ESE,118,8.0,17.0,34,0.00,,SCT,0.00,350.00,VWS V14.01,2013-03-29 18:19:00,
2013-03-29 14:24:00,56.9,28.1,30.32,ENE,63,12.0,18.0,33,0.00,,SCT,0.00,1011.00,VWS V14.01,2013-03-29 18:24:00,
2013-03-29 14:29:00,57.4,27.8,30.32,ESE,102,11.0,18.0,32,0.00,,SCT,0.00,316.00,VWS V14.01,2013-03-29 18:29:00,
2013-03-29 14:34:00,56.6,27.9,30.32,SSE,153,7.0,18.0,33,0.00,,SCT,0.00,295.00,VWS V14.01,2013-03-29 18:34:00,
2013-03-29 14:39:00,56.6,27.9,30.31,NE,46,11.0,18.0,33,0.00,,SCT,0.00,415.00,VWS V14.01,2013-03-29 18:39:00,
2013-03-29 14:44:00,56.5,29.2,30.31,ESE,104,7.0,18.0,35,0.00,,SCT,0.00,269.00,VWS V14.01,2013-03-29 18:44:00,
2013-03-29 14:49:00,56.6,29.3,30.31,ESE,119,6.0,18.0,35,0.00,,SCT,0.00,200.00,VWS V14.01,2013-03-29 18:49:00,
2013-03-29 14:54:00,55.9,28.7,30.31,SE,136,6.0,9.0,35,0.00,,SCT,0.00,183.00,VWS V14.01,2013-03-29 18:54:00,
2013-03-29 14:59:00,55.7,28.5,30.31,SE,125,4.0,9.0,35,0.00,,SCT,0.00,197.00,VWS V14.01,2013-03-29 18:59:00,
2013-03-29 15:00:00,56.0,28.8,30.31,ESE,118,7.0,18.0,35,0.00,,SCT,0.00,181.00,VWS V14.01,2013-03-29 19:00:00,
2013-03-29 15:04:00,56.7,27.9,30.31,East,94,12.0,14.0,33,0.00,,SCT,0.00,844.00,VWS V14.01,2013-03-29 19:04:00,
2013-03-29 15:09:00,57.3,27.7,30.30,ESE,108,11.0,15.0,32,0.00,,SCT,0.00,835.00,VWS V14.01,2013-03-29 19:09:00,
2013-03-29 15:14:00,58.1,27.6,30.30,SE,135,7.0,15.0,31,0.00,,SCT,0.00,805.00,VWS V14.01,2013-03-29 19:14:00,
2013-03-29 15:19:00,58.3,27.0,30.30,NE,49,11.0,15.0,30,0.00,,SCT,0.00,780.00,VWS V14.01,2013-03-29 19:19:00,
2013-03-29 15:24:00,57.7,27.3,30.30,NNE,19,5.0,15.0,31,0.00,,SCT,0.00,803.00,VWS V14.01,2013-03-29 19:24:00,
2013-03-29 15:29:00,58.4,27.1,30.29,ESE,122,6.0,15.0,30,0.00,,SCT,0.00,802.00,VWS V14.01,2013-03-29 19:29:00,
2013-03-29 15:34:00,57.8,29.6,30.29,SE,143,2.0,15.0,34,0.00,,SCT,0.00,800.00,VWS V14.01,2013-03-29 19:34:00,
2013-03-29 15:39:00,57.1,29.7,30.29,South,177,6.0,15.0,35,0.00,,SCT,0.00,765.00,VWS V14.01,2013-03-29 19:39:00,
2013-03-29 15:44:00,57.8,30.4,30.29,SSW,200,7.0,15.0,35,0.00,,SCT,0.00,729.00,VWS V14.01,2013-03-29 19:44:00,
2013-03-29 15:49:00,58.1,30.6,30.29,East,88,3.0,15.0,35,0.00,,SCT,0.00,710.00,VWS V14.01,2013-03-29 19:49:00,
2013-03-29 15:54:00,57.9,29.0,30.29,South,181,4.0,5.0,33,0.00,,SCT,0.00,731.00,VWS V14.01,2013-03-29 19:54:00,
2013-03-29 15:59:00,57.1,28.3,30.28,South,183,2.0,5.0,33,0.00,,SCT,0.00,178.00,VWS V14.01,2013-03-29 19:59:00,
2013-03-29 16:00:00,58.2,28.5,30.29,SSE,163,0.0,15.0,32,0.00,,SCT,0.00,729.00,VWS V14.01,2013-03-29 20:00:00,
2013-03-29 16:04:00,57.5,27.1,30.28,ENE,74,4.0,6.0,31,0.00,,SCT,0.00,165.00,VWS V14.01,2013-03-29 20:04:00,
2013-03-29 16:09:00,57.7,25.7,30.28,ESE,123,6.0,14.0,29,0.00,,SCT,0.00,188.00,VWS V14.01,2013-03-29 20:09:00,
2013-03-29 16:14:00,57.3,26.2,30.28,East,89,1.0,14.0,30,0.00,,SCT,0.00,167.00,VWS V14.01,2013-03-29 20:14:00,
2013-03-29 16:19:00,57.4,26.2,30.28,East,91,0.0,14.0,30,0.00,,SCT,0.00,151.00,VWS V14.01,2013-03-29 20:19:00,
2013-03-29 16:24:00,57.6,25.6,30.28,East,90,0.0,14.0,29,0.00,,SCT,0.00,292.00,VWS V14.01,2013-03-29 20:24:00,
2013-03-29 16:29:00,57.9,26.7,30.27,SE,136,2.0,14.0,30,0.00,,SCT,0.00,139.00,VWS V14.01,2013-03-29 20:29:00,
2013-03-29 16:34:00,58.2,26.9,30.27,ESE,122,9.0,14.0,30,0.00,,SCT,0.00,561.00,VWS V14.01,2013-03-29 20:34:00,
2013-03-29 16:39:00,58.3,25.4,30.27,ESE,118,6.0,14.0,28,0.00,,SCT,0.00,151.00,VWS V14.01,2013-03-29 20:39:00,
2013-03-29 16:44:00,58.0,26.0,30.27,ESE,115,9.0,14.0,29,0.00,,SCT,0.00,255.00,VWS V14.01,2013-03-29 20:44:00,
2013-03-29 16:49:00,58.5,27.2,30.27,East,96,5.0,14.0,30,0.00,,SCT,0.00,538.00,VWS V14.01,2013-03-29 20:49:00,
2013-03-29 16:54:00,57.9,25.9,30.27,East,95,5.0,5.0,29,0.00,,SCT,0.00,111.00,VWS V14.01,2013-03-29 20:54:00,
2013-03-29 16:59:00,57.7,25.7,30.27,SE,138,4.0,8.0,29,0.00,,SCT,0.00,132.00,VWS V14.01,2013-03-29 20:59:00,
2013-03-29 17:00:00,58.1,26.0,30.27,East,95,2.0,14.0,29,0.00,,SCT,0.00,107.00,VWS V14.01,2013-03-29 21:00:00,
2013-03-29 17:04:00,57.9,25.9,30.27,ESE,119,2.0,8.0,29,0.00,,SCT,0.00,188.00,VWS V14.01,2013-03-29 21:04:00,
2013-03-29 17:09:00,57.9,25.9,30.26,ESE,106,0.0,8.0,29,0.00,,SCT,0.00,457.00,VWS V14.01,2013-03-29 21:09:00,
2013-03-29 17:14:00,59.0,26.0,30.27,ESE,106,2.0,8.0,28,0.00,,SCT,0.00,431.00,VWS V14.01,2013-03-29 21:14:00,
2013-03-29 17:19:00,59.3,26.2,30.27,SE,146,8.0,9.0,28,0.00,,SCT,0.00,425.00,VWS V14.01,2013-03-29 21:19:00,
2013-03-29 17:24:00,59.1,25.2,30.26,ESE,115,11.0,14.0,27,0.00,,SCT,0.00,420.00,VWS V14.01,2013-03-29 21:24:00,
2013-03-29 17:29:00,58.8,25.8,30.26,ENE,59,4.0,14.0,28,0.00,,SCT,0.00,364.00,VWS V14.01,2013-03-29 21:29:00,
2013-03-29 17:34:00,58.9,25.9,30.26,ESE,102,6.0,14.0,28,0.00,,SCT,0.00,338.00,VWS V14.01,2013-03-29 21:34:00,
2013-03-29 17:39:00,58.6,26.5,30.27,SE,131,5.0,14.0,29,0.00,,SCT,0.00,93.00,VWS V14.01,2013-03-29 21:39:00,
2013-03-29 17:44:00,58.3,25.4,30.27,ESE,120,9.0,14.0,28,0.00,,SCT,0.00,95.00,VWS V14.01,2013-03-29 21:44:00,
2013-03-29 17:49:00,57.8,25.8,30.27,SE,130,0.0,14.0,29,0.00,,SCT,0.00,290.00,VWS V14.01,2013-03-29 21:49:00,
2013-03-29 17:54:00,58.0,26.0,30.27,SE,134,0.0,1.0,29,0.00,,SCT,0.00,290.00,VWS V14.01,2013-03-29 21:54:00,
2013-03-29 17:59:00,58.1,26.0,30.27,South,185,5.0,6.0,29,0.00,,SCT,0.00,116.00,VWS V14.01,2013-03-29 21:59:00,
2013-03-29 18:00:00,57.9,25.9,30.27,SE,134,0.0,14.0,29,0.00,,SCT,0.00,288.00,VWS V14.01,2013-03-29 22:00:00,
2013-03-29 18:04:00,57.8,25.8,30.27,South,187,3.0,6.0,29,0.00,,SCT,0.00,120.00,VWS V14.01,2013-03-29 22:04:00,
2013-03-29 18:09:00,57.8,25.8,30.27,SSE,168,4.0,6.0,29,0.00,,SCT,0.00,153.00,VWS V14.01,2013-03-29 22:09:00,
2013-03-29 18:14:00,58.0,26.0,30.27,South,184,3.0,6.0,29,0.00,,SCT,0.00,100.00,VWS V14.01,2013-03-29 22:14:00,
2013-03-29 18:19:00,58.0,26.8,30.27,SSE,149,5.0,7.0,30,0.00,,SCT,0.00,100.00,VWS V14.01,2013-03-29 22:19:00,
2013-03-29 18:24:00,58.1,26.0,30.27,ESE,119,6.0,8.0,29,0.00,,SCT,0.00,90.00,VWS V14.01,2013-03-29 22:24:00,
2013-03-29 18:29:00,58.1,26.9,30.27,ESE,123,0.0,8.0,30,0.00,,SCT,0.00,90.00,VWS V14.01,2013-03-29 22:29:00,
2013-03-29 18:34:00,58.0,26.8,30.27,South,171,5.0,8.0,30,0.00,,SCT,0.00,84.00,VWS V14.01,2013-03-29 22:34:00,
2013-03-29 18:39:00,57.9,26.7,30.27,SSE,155,1.0,8.0,30,0.00,,SCT,0.00,65.00,VWS V14.01,2013-03-29 22:39:00,
2013-03-29 18:44:00,57.8,26.6,30.27,SSE,148,6.0,8.0,30,0.00,,SCT,0.00,56.00,VWS V14.01,2013-03-29 22:44:00,
2013-03-29 18:49:00,57.6,26.4,30.27,SE,142,6.0,8.0,30,0.00,,SCT,0.00,53.00,VWS V14.01,2013-03-29 22:49:00,
2013-03-29 18:54:00,57.5,26.3,30.27,SE,140,2.0,5.0,30,0.00,,SCT,0.00,35.00,VWS V14.01,2013-03-29 22:54:00,
2013-03-29 18:59:00,57.5,26.3,30.27,SSE,153,1.0,8.0,30,0.00,,SCT,0.00,30.00,VWS V14.01,2013-03-29 22:59:00,
2013-03-29 19:00:00,57.6,26.4,30.27,SSE,161,1.0,8.0,30,0.00,,SCT,0.00,37.00,VWS V14.01,2013-03-29 23:00:00,
2013-03-29 19:04:00,57.3,27.0,30.28,SSW,203,5.0,11.0,31,0.00,,SCT,0.00,26.00,VWS V14.01,2013-03-29 23:04:00,
2013-03-29 19:09:00,56.9,26.6,30.28,South,188,6.0,11.0,31,0.00,,SCT,0.00,21.00,VWS V14.01,2013-03-29 23:09:00,
2013-03-29 19:14:00,56.8,26.5,30.28,South,182,5.0,11.0,31,0.00,,SCT,0.00,18.00,VWS V14.01,2013-03-29 23:14:00,
2013-03-29 19:19:00,56.6,27.1,30.28,South,186,4.0,11.0,32,0.00,,SCT,0.00,12.00,VWS V14.01,2013-03-29 23:19:00,
2013-03-29 19:24:00,56.4,26.9,30.28,South,176,6.0,11.0,32,0.00,,SCT,0.00,7.00,VWS V14.01,2013-03-29 23:24:00,
2013-03-29 19:29:00,56.2,26.8,30.28,South,182,2.0,11.0,32,0.00,,SCT,0.00,5.00,VWS V14.01,2013-03-29 23:29:00,
2013-03-29 19:34:00,56.1,26.7,30.28,South,190,0.0,11.0,32,0.00,,SCT,0.00,0.00,VWS V14.01,2013-03-29 23:34:00,
2013-03-29 19:39:00,55.9,27.2,30.28,South,188,1.0,11.0,33,0.00,,SCT,0.00,0.00,VWS V14.01,2013-03-29 23:39:00,
2013-03-29 19:44:00,55.8,27.1,30.29,South,186,0.0,11.0,33,0.00,,SCT,0.00,0.00,VWS V14.01,2013-03-29 23:44:00,
2013-03-29 19:49:00,55.6,27.0,30.29,South,185,0.0,11.0,33,0.00,,SCT,0.00,0.00,VWS V14.01,2013-03-29 23:49:00,
2013-03-29 19:54:00,55.4,26.8,30.29,South,181,2.0,3.0,33,0.00,,SCT,0.00,0.00,VWS V14.01,2013-03-29 23:54:00,
2013-03-29 19:59:00,55.3,26.7,30.29,South,169,4.0,6.0,33,0.00,,SCT,0.00,0.00,VWS V14.01,2013-03-29 23:59:00,
2013-03-29 20:00:00,55.4,26.8,30.29,South,185,1.0,11.0,33,0.00,,SCT,0.00,0.00,VWS V14.01,2013-03-30 00:00:00,
2013-03-29 20:04:00,55.3,26.7,30.29,South,169,0.0,6.0,33,0.00,,SCT,0.00,0.00,VWS V14.01,2013-03-30 00:04:00,
2013-03-29 20:09:00,55.1,27.3,30.29,South,169,0.0,6.0,34,0.00,,SCT,0.00,0.00,VWS V14.01,2013-03-30 00:09:00,
2013-03-29 20:14:00,54.8,27.7,30.29,South,169,0.0,6.0,35,0.00,,SCT,0.00,0.00,VWS V14.01,2013-03-30 00:14:00,
2013-03-29 20:19:00,54.6,27.5,30.30,South,169,1.0,6.0,35,0.00,,SCT,0.00,0.00,VWS V14.01,2013-03-30 00:19:00,
2013-03-29 20:24:00,54.4,27.3,30.30,South,169,1.0,6.0,35,0.00,,SCT,0.00,0.00,VWS V14.01,2013-03-30 00:24:00,
2013-03-29 20:29:00,54.3,27.2,30.30,South,169,0.0,6.0,35,0.00,,SCT,0.00,0.00,VWS V14.01,2013-03-30 00:29:00,
2013-03-29 20:34:00,54.2,27.2,30.30,South,169,0.0,6.0,35,0.00,,SCT,0.00,0.00,VWS V14.01,2013-03-30 00:34:00,
2013-03-29 20:39:00,54.1,27.1,30.30,South,169,0.0,6.0,35,0.00,,SCT,0.00,0.00,VWS V14.01,2013-03-30 00:39:00,
2013-03-29 20:44:00,54.0,27.0,30.31,South,169,0.0,6.0,35,0.00,,SCT,0.00,0.00,VWS V14.01,2013-03-30 00:44:00,
2013-03-29 20:49:00,53.9,26.9,30.31,South,169,0.0,6.0,35,0.00,,SCT,0.00,0.00,VWS V14.01,2013-03-30 00:49:00,
2013-03-29 20:54:00,54.0,27.0,30.31,South,169,0.0,0.0,35,0.00,,SCT,0.00,0.00,VWS V14.01,2013-03-30 00:54:00,
2013-03-29 20:59:00,54.0,27.0,30.31,South,169,0.0,0.0,35,0.00,,SCT,0.00,0.00,VWS V14.01,2013-03-30 00:59:00,
2013-03-29 21:00:00,54.0,27.0,30.31,South,169,0.0,6.0,35,0.00,,SCT,0.00,0.00,VWS V14.01,2013-03-30 01:00:00,
2013-03-29 21:04:00,53.8,26.8,30.31,South,169,0.0,0.0,35,0.00,,SCT,0.00,0.00,VWS V14.01,2013-03-30 01:04:00,
2013-03-29 21:09:00,53.5,27.2,30.32,South,169,0.0,0.0,36,0.00,,SCT,0.00,0.00,VWS V14.01,2013-03-30 01:09:00,
2013-03-29 21:14:00,53.5,27.2,30.32,South,169,0.0,0.0,36,0.00,,SCT,0.00,0.00,VWS V14.01,2013-03-30 01:14:00,
2013-03-29 21:19:00,53.3,27.0,30.32,South,169,0.0,1.0,36,0.00,,SCT,0.00,0.00,VWS V14.01,2013-03-30 01:19:00,
2013-03-29 21:24:00,53.2,27.0,30.32,South,169,0.0,1.0,36,0.00,,SCT,0.00,0.00,VWS V14.01,2013-03-30 01:24:00,
2013-03-29 21:29:00,53.1,26.9,30.32,South,169,0.0,1.0,36,0.00,,SCT,0.00,0.00,VWS V14.01,2013-03-30 01:29:00,
2013-03-29 21:34:00,52.8,26.6,30.32,South,169,0.0,1.0,36,0.00,,SCT,0.00,0.00,VWS V14.01,2013-03-30 01:34:00,
2013-03-29 21:39:00,52.1,26.6,30.32,South,169,0.0,1.0,37,0.00,,SCT,0.00,0.00,VWS V14.01,2013-03-30 01:39:00,
2013-03-29 21:44:00,52.1,27.3,30.33,South,169,0.0,1.0,38,0.00,,SCT,0.00,0.00,VWS V14.01,2013-03-30 01:44:00,
2013-03-29 21:49:00,52.1,26.6,30.33,South,169,0.0,1.0,37,0.00,,SCT,0.00,0.00,VWS V14.01,2013-03-30 01:49:00,
2013-03-29 21:54:00,51.8,26.4,30.33,South,169,0.0,0.0,37,0.00,,SCT,0.00,0.00,VWS V14.01,2013-03-30 01:54:00,
2013-03-29 21:59:00,51.9,26.5,30.33,South,169,0.0,1.0,37,0.00,,SCT,0.00,0.00,VWS V14.01,2013-03-30 01:59:00,
2013-03-29 22:00:00,51.8,26.4,30.33,South,169,0.0,1.0,37,0.00,,SCT,0.00,0.00,VWS V14.01,2013-03-30 02:00:00,
2013-03-29 22:04:00,51.7,26.3,30.33,South,169,0.0,1.0,37,0.00,,SCT,0.00,0.00,VWS V14.01,2013-03-30 02:04:00,
2013-03-29 22:09:00,51.6,25.5,30.33,South,169,0.0,1.0,36,0.00,,SCT,0.00,0.00,VWS V14.01,2013-03-30 02:09:00,
2013-03-29 22:14:00,51.0,26.9,30.34,South,169,0.0,1.0,39,0.00,,SCT,0.00,0.00,VWS V14.01,2013-03-30 02:14:00,
2013-03-29 22:19:00,50.4,26.4,30.34,South,169,0.0,1.0,39,0.00,,SCT,0.00,0.00,VWS V14.01,2013-03-30 02:19:00,
2013-03-29 22:24:00,49.4,27.3,30.34,South,169,0.0,1.0,42,0.00,,SCT,0.00,0.00,VWS V14.01,2013-03-30 02:24:00,
2013-03-29 22:29:00,49.0,26.3,30.34,South,169,0.0,1.0,41,0.00,,SCT,0.00,0.00,VWS V14.01,2013-03-30 02:29:00,
2013-03-29 22:34:00,49.3,26.6,30.34,South,169,0.0,1.0,41,0.00,,SCT,0.00,0.00,VWS V14.01,2013-03-30 02:34:00,
2013-03-29 22:39:00,49.7,27.0,30.34,South,169,0.0,1.0,41,0.00,,SCT,0.00,0.00,VWS V14.01,2013-03-30 02:39:00,
2013-03-29 22:44:00,49.4,28.4,30.34,South,169,0.0,4.0,44,0.00,,SCT,0.00,0.00,VWS V14.01,2013-03-30 02:44:00,
2013-03-29 22:49:00,49.7,28.7,30.34,SSE,165,2.0,4.0,44,0.00,,SCT,0.00,0.00,VWS V14.01,2013-03-30 02:49:00,
2013-03-29 22:54:00,49.7,28.7,30.34,SSE,165,0.0,1.0,44,0.00,,SCT,0.00,0.00,VWS V14.01,2013-03-30 02:54:00,
2013-03-29 22:59:00,48.7,28.9,30.34,SSE,165,0.0,1.0,46,0.00,,SCT,0.00,0.00,VWS V14.01,2013-03-30 02:59:00,
2013-03-29 23:00:00,49.7,28.7,30.34,SSE,165,1.0,4.0,44,0.00,,SCT,0.00,0.00,VWS V14.01,2013-03-30 03:00:00,
2013-03-29 23:04:00,48.1,27.8,30.35,SSE,165,1.0,2.0,45,0.00,,SCT,0.00,0.00,VWS V14.01,2013-03-30 03:04:00,
2013-03-29 23:09:00,48.3,27.4,30.34,SSE,165,4.0,4.0,44,0.00,,SCT,0.00,0.00,VWS V14.01,2013-03-30 03:09:00,
2013-03-29 23:14:00,48.5,27.6,30.34,SSE,165,0.0,5.0,44,0.00,,SCT,0.00,0.00,VWS V14.01,2013-03-30 03:14:00,
2013-03-29 23:19:00,48.7,27.2,30.34,SSE,165,0.0,5.0,43,0.00,,SCT,0.00,0.00,VWS V14.01,2013-03-30 03:19:00,
2013-03-29 23:24:00,49.1,26.4,30.35,SSE,165,0.0,5.0,41,0.00,,SCT,0.00,0.00,VWS V14.01,2013-03-30 03:24:00,
2013-03-29 23:29:00,48.8,26.2,30.35,SSE,165,1.0,5.0,41,0.00,,SCT,0.00,0.00,VWS V14.01,2013-03-30 03:29:00,
2013-03-29 23:34:00,48.7,26.1,30.35,SSE,165,0.0,5.0,41,0.00,,SCT,0.00,0.00,VWS V14.01,2013-03-30 03:34:00,
2013-03-29 23:39:00,48.2,26.8,30.35,SE,130,2.0,5.0,43,0.00,,SCT,0.00,0.00,VWS V14.01,2013-03-30 03:39:00,
2013-03-29 23:44:00,47.9,26.5,30.35,SE,129,2.0,5.0,43,0.00,,SCT,0.00,0.00,VWS V14.01,2013-03-30 03:44:00,
2013-03-29 23:49:00,48.7,26.6,30.34,East,90,1.0,5.0,42,0.00,,SCT,0.00,0.00,VWS V14.01,2013-03-30 03:49:00,
2013-03-29 23:54:00,48.2,27.9,30.35,ENE,77,1.0,2.0,45,0.00,,SCT,0.00,0.00,VWS V14.01,2013-03-30 03:54:00,
2013-03-29 23:59:00,47.5,28.8,30.35,ENE,77,0.0,3.0,48,0.00,,SCT,0.00,0.00,VWS V14.01,2013-03-30 03:59:00,